Weather History for Springfield, IL

Change the Weather History Date:

Sunday, July 7, 2013

  Actual Average Record
Temperature  
Mean Temperature 79 °F 76 °F  
Max Temperature 91 °F 87 °F 104 °F (1936)
Min Temperature 67 °F 66 °F 53 °F (1983)
Degree Days  
Heating Degree Days 0 0  
Month to date heating degree days 0 0  
Since 1 June heating degree days 12 15  
Since 1 July heating degree days 0 0  
Cooling Degree Days 14 11  
Month to date cooling degree days 56 77  
Year to date cooling degree days 440 421  
Since 1 June cooling degree days 314 317  
Growing Degree Days 28 (Base 50)    
Moisture  
Dew Point 67 °F    
Average Humidity 70    
Maximum Humidity 93    
Minimum Humidity 47    
Precipitation  
Precipitation 0.00 in 0.13 in 2.15 in (1998)
Month to date precipitation T 0.91  
Year to date precipitation 27.07 19.38  
Snow  
Snow 0.00 in 0.00 in 0.00 in ()
Month to date snowfall 0.0 0.0  
Since 1 June snowfall 0.0 0.0  
Since 1 July snowfall 0.0 0.0  
Snow Depth 0.00 in    
Sea Level Pressure  
Sea Level Pressure 30.00 in    
Wind  
Wind Speed 9 mph (SSW)    
Max Wind Speed 15 mph    
Max Gust Speed 18 mph    
Visibility 10 miles    
Events      
T = Trace of Precipitation, MM = Missing Value Source: NWS Daily Summary

Daily Weather History Graph

Daily Weather History Graph

Search for Another Location

Airport:

Trip Planner

Search our weather history database for the weather conditions in past years. The results will help you decide how hot, cold, wet, or windy it might be!

Date:

Astronomy

Jul. 07, 2013 Rise Set
Actual Time 5:37 AM CDT 8:29 PM CDT
Civil Twilight 5:05 AM CDT 9:01 PM CDT
Nautical Twilight 4:24 AM CDT 9:42 PM CDT
Astronomical Twilight 3:37 AM CDT 10:29 PM CDT
Moon 5:13 AM CDT (7/7) 7:53 PM CDT (7/7)
Length of Visible Light 15h 56m
Length of Day
14h 51m
Waning Crescent, 0% of the Moon is Illuminated
Jul 7
Waning Crescent
Jul 8
New
Jul 15
First Quarter
Jul 22
Full
Jul 29
Last Quarter

Hourly Weather History & Observations

Time (CDT) Temp. Heat Index Dew Point Humidity Pressure Visibility Wind Dir Wind Speed Gust Speed Precip Events Conditions
12:52 AM 71.1 °F - 61.0 °F 70% 30.01 in 10.0 mi South 6.9 mph - N/A   Clear
1:52 AM 69.1 °F - 61.0 °F 75% 30.00 in 10.0 mi South 4.6 mph - N/A   Clear
2:52 AM 68.0 °F - 61.0 °F 78% 30.00 in 10.0 mi South 6.9 mph - N/A   Clear
3:52 AM 68.0 °F - 63.0 °F 84% 30.00 in 10.0 mi South 6.9 mph - N/A   Clear
4:52 AM 68.0 °F - 63.0 °F 84% 30.00 in 10.0 mi SW 6.9 mph - N/A   Clear
5:52 AM 66.9 °F - 64.0 °F 90% 30.01 in 10.0 mi South 5.8 mph - N/A   Clear
6:52 AM 69.1 °F - 64.0 °F 84% 30.02 in 10.0 mi South 4.6 mph - N/A   Clear
7:52 AM 71.1 °F - 64.9 °F 81% 30.04 in 10.0 mi South 6.9 mph - N/A   Clear
8:52 AM 73.0 °F - 66.0 °F 79% 30.04 in 10.0 mi South 9.2 mph - N/A   Clear
9:52 AM 78.1 °F - 68.0 °F 71% 30.03 in 10.0 mi South 10.4 mph - N/A   Mostly Cloudy
10:52 AM 81.0 °F 84.1 °F 69.1 °F 67% 30.03 in 10.0 mi South 10.4 mph - N/A   Clear
11:52 AM 84.9 °F 90.1 °F 71.1 °F 63% 30.02 in 10.0 mi South 9.2 mph - N/A   Clear
12:52 PM 86.0 °F 90.7 °F 70.0 °F 59% 30.01 in 10.0 mi South 9.2 mph - N/A   Scattered Clouds
1:52 PM 89.1 °F 94.1 °F 70.0 °F 53% 30.00 in 10.0 mi SSW 8.1 mph 16.1 mph N/A   Clear
2:52 PM 90.0 °F 93.6 °F 68.0 °F 48% 30.00 in 10.0 mi SSW 9.2 mph - N/A   Clear
3:52 PM 91.0 °F 95.2 °F 68.0 °F 47% 29.98 in 10.0 mi SW 9.2 mph - N/A   Partly Cloudy
4:52 PM 90.0 °F 94.5 °F 69.1 °F 50% 29.98 in 10.0 mi SSW 11.5 mph - N/A   Scattered Clouds
5:52 PM 88.0 °F 90.7 °F 66.9 °F 49% 29.97 in 10.0 mi SW 10.4 mph - N/A   Partly Cloudy
6:52 PM 87.1 °F 90.6 °F 68.0 °F 53% 29.97 in 10.0 mi SSW 8.1 mph - N/A   Partly Cloudy
7:52 PM 84.9 °F 88.2 °F 68.0 °F 57% 29.98 in 10.0 mi SSW 5.8 mph - N/A   Clear
8:52 PM 82.0 °F 85.9 °F 70.0 °F 67% 29.99 in 10.0 mi South 6.9 mph - N/A   Clear
9:52 PM 81.0 °F 84.4 °F 70.0 °F 69% 30.00 in 10.0 mi South 10.4 mph - N/A   Clear
10:52 PM 80.1 °F 83.2 °F 70.0 °F 71% 30.01 in 10.0 mi South 10.4 mph - N/A   Clear
11:52 PM 80.1 °F 82.9 °F 69.1 °F 69% 30.02 in 10.0 mi SSW 12.7 mph - N/A   Clear